GALAUPOKER - Bandar Judi Agen Poker Domino Ceme Blackjack Capsa

Jackpot

Texas Poker Multi Jackpot System

Kini Telah hadir Jackpot SUPER ROYAL FLUSH

Kini Telah hadir Jackpot 2000 (khusus table VIP keatas).

Ikutilah global jackpot yang tersedia di system kami, dengan system jackpot terbaru dan pertama di indonesia, anda dapat membeli jackpot dengan harga 100 rupiah saja dan menangkan hadiahnya hingga puluhan juta rupiah.

Jackpot bukanlah suatu keharusan untuk dibeli, namun kami memberikan suatu fitur tambahan untuk member tercinta dari www.pokergalau.com.

Terdapat tiga pilihan harga jackpot yang bisa anda beli yaitu :100,500,1000 dan 2000(khusus table VIP Keatas) rupiah.

Hadiah dari Multi jackpot system www.pokergalau.com

  1. full house x 10 harga jackpot yang anda beli.
      (contoh:anda membeli 1000 maka:1000 X10 = 10.000)
  2. four of kind x 250 harga jackpot yang anda beli
      (contoh:anda membeli 1000 maka:1000 X250 = 250.000)
  3. Straight flush x 1200
      (contoh:anda membeli 1000 maka:1000 X1200 = 1.200.000)
  4. Royal flush x 10000 harga jackpot yang anda beli
      (contoh:anda membeli 1000 maka:1000 X10000 = 10.000.000)
  5. SUPER ROYAL FLUSH x 30000 harga jackpot yang anda beli
      (contoh:anda membeli 1000 maka:1000 X30000 = 30.000.000)

Kondisi kartu

  1. full house adalah kondisi kartu dimana kartu anda dan kartu tengah dengan total 7 kartu bisa mendapatkan nilai 5 kartu dengan kombinasi 1 tris(three of kind) dan 1 pair, contoh 3 kartu 10 dan 2 kartu 5
  2. Four of kind adalah kondisi kartu dimana kartu anda dan kartu tengah dengan total 7 kartu bisa mendapatkan nilai 5 kartu dengan kombinasi 4 kartu yang sama jumlah dan 1 kartu apapun juga contoh anda mendapatkan 4 buah kartu angka 3 dan 1 kartu apapun.
  3. Staright flush adalah kondisi kartu dimana kartu anda dan kartu tengah dengan total 7 kartu bisa mendapatkan nilai 5 kartu dengan kombinasi seri / staright dengan kembang yang sama contoh : urutan kartu dari angka 5, 6, 7, 8 , 9 10 dengan kembang yg sama misalnya as hati
  4. Royal flush adalah kondisi kartu dimana kartu anda dan kartu tengah dengan total 7 kartu bisa mendapatkan nilai 5 kartu dengan kombinasi seri / staright dengan kembang yang sama tetapi kartu tersebut haruslah dimulai dari 10. contoh 10, Queen, Jack, King dan aces dengan kembang yang sama
  5. Super Royal flush adalah kondisi kartu dimana Kedua kartu anda digabung dengan 3 kartu pertama meja haruslah royal flush. contoh kartu anda 10,Queen kembang sama dan 3 kartu pertama meja adalah Jack, King dan aces dengan kembang yang sama

Demikian adalah penjelasan dari Multi Jackpot www.pokergalau.com terima kasih dan selamat bermain salam hoki dari kami

Texas Poker Jackpot Winner

TOP SUPER ROYAL FLUSH
No.TanggalNamaPriceWin
119/01 21:56ROMLY991Super Royal flush15,000,000
219/01 20:27ANKKA20Super Royal flush3,000,000
319/01 15:59HITAM7878Super Royal flush60,000,000
419/01 14:20NOVIASARISuper Royal flush15,000,000
519/01 11:40FAUZI029Super Royal flush3,000,000
TOP ROYAL FLUSH
No.TanggalNamaPriceWin
119/01 21:51BOSHELL888Royal flush5,000,000
219/01 21:35D4A02590Royal flush5,000,000
319/01 21:22C7B59EAARoyal flush2,000,000
419/01 21:04OKBROORoyal flush2,000,000
519/01 20:52KOBUS99Royal flush5,000,000
TOP STRAIGHT FLUSH
No.TanggalNamaPriceWin
119/01 22:02NAMEK123Straight Flush240,000
219/01 22:02OYOY105Straight Flush240,000
319/01 21:59YUPS_YUPSStraight Flush120,000
419/01 21:56F191803BStraight Flush240,000
519/01 21:56EKARR72Straight Flush240,000
LATEST JACKPOT
No.TanggalNamaPriceWin
119/01 22:03CS4JS828Q6Full House1,000
219/01 22:03TEREKELFull House1,000
319/01 22:03E3GAOX9DYBFull House10,000
419/01 22:03QGXBP7AFCSFull House500
519/01 22:03K4AO3LK0R8Full House5,000
619/01 22:03AFRICA_XLFull House5,000
719/01 22:03TENOVSKYFull House2,000
819/01 22:03TEMPOER7Full House5,000
919/01 22:03BDR46Full House10,000
1019/01 22:03DAKOM285Full House500
1119/01 22:03HOLYLUCK77Full House1,000
1219/01 22:03NGREOKLAPEFull House2,000
1319/01 22:03TDMCFull House2,000
1419/01 22:03UOT4WW4Z7HFull House10,000
1519/01 22:03NURUL68Full House1,000
1619/01 22:03MENKCI88Full House10,000
1719/01 22:03KUSDIANA11Full House10,000
1819/01 22:03LEEAANFull House2,000
1919/01 22:03JEFRI08Full House2,000
2019/01 22:03ULAKPENG87Full House5,000
2119/01 22:03SLANKQIUFull House5,000
2219/01 22:03SOGOL255Full House20,000
2319/01 22:03SALMA212Full House500
2419/01 22:03DWBTORA87Full House1,000
2519/01 22:03DEVILDEFAFull House1,000
2619/01 22:03XHEYB6RUQFull House2,000
2719/01 22:03INAQ02Full House20,000
2819/01 22:03CN7VUL0M7XFull House5,000
2919/01 22:03BANG_B0ZAFour Of A Kind250,000
3019/01 22:03AKOH99Full House1,000
3119/01 22:03PASIBAN88Full House1,000
3219/01 22:03LUKMANNULFull House2,000
3319/01 22:03QL5B00DYN0Full House2,000
3419/01 22:03LOGOUT123Full House1,000
3519/01 22:03OFA8N8ZV51Full House5,000
3619/01 22:03ANA_RIDWFull House10,000
3719/01 22:03AADRBC3S8Full House5,000
3819/01 22:03SANJAYA696Full House1,000
3919/01 22:03C5776819Full House2,000
4019/01 22:03E7C50D57Full House2,000
4119/01 22:03AVA8989Full House5,000
4219/01 22:03BUJIN123Full House5,000
4319/01 22:03JANDA858Full House2,000
4419/01 22:03XX83Full House5,000
4519/01 22:03REMBOZ09Full House1,000
4619/01 22:03NYALASARIFull House10,000
4719/01 22:03GAWEBUNGAHFour Of A Kind50,000
4819/01 22:03PSL22Full House2,000
4919/01 22:03YXHJYNYRSEFull House2,000
5019/01 22:03NANGKA1999Full House20,000

Domino Multi Jackpot System

Ikutilah global jackpot yang tersedia di system kami, dengan system jackpot terbaru dan pertama di indonesia, anda dapat membeli jackpot dengan harga 100 rupiah saja dan menangkan hadiahnya hingga puluhan juta rupiah.

Jackpot bukanlah suatu keharusan untuk dibeli, namun kami memberikan suatu fitur tambahan untuk member tercinta dari www.pokergalau.com.

Terdapat tiga pilihan harga jackpot yang bisa anda beli yaitu :100,500 dan 1000 rupiah.

Hadiah dari Multi jackpot system www.pokergalau.com

  1. Murni Kecil x 50 harga jackpot yang anda beli.
      (contoh:anda membeli 1000 maka:1000 X 50 = 50.000)
  2. Murni Besar x 50 harga jackpot yang anda beli
      (contoh:anda membeli 1000 maka:1000 X 50 = 50.000)
  3. BALAK x 100 harga jackpot yang anda beli
      (contoh:anda membeli 1000 maka:1000 X 100 = 100.000)
  4. ENAM DEWA x 6666 harga jackpot yang anda beli
      (contoh:anda membeli 1000 maka:1000 X 6666 = 6.666.000)

Demikian adalah penjelasan dari Multi Jackpot www.pokergalau.com terima kasih dan selamat bermain salam hoki dari kami

Domino Jackpot Winner

TOP ENAM DEWA
No.TanggalNamaPriceWin
119/01 21:42OLIV46murni enam6,666,000
219/01 21:31PLANET11murni enam3,333,000
319/01 20:07ANRI577murni enam3,333,000
419/01 18:41TASKIL88murni enam666,600
519/01 18:33HIKMALLLmurni enam3,333,000
TOP BALAK
No.TanggalNamaPriceWin
119/01 22:01ANHARKAUbalak100,000
219/01 22:01YENDI20balak100,000
319/01 22:01EVEN0009balak50,000
419/01 22:01DELAU09balak10,000
519/01 21:59NITTA_SHUNbalak10,000
LATEST JACKPOT
No.TanggalNamaPriceWin
119/01 22:03GATOK85murni kecil25,000
219/01 22:03RIMBUNmurni kecil50,000
319/01 22:02TAIKUDAmurni besar50,000
419/01 22:02AMEKQQmurni kecil50,000
519/01 22:02BRUNJUNGmurni kecil25,000
619/01 22:02INAINA99murni besar25,000
719/01 22:02BIMAA66murni besar5,000
819/01 22:01ANHARKAUbalak100,000
919/01 22:01JEBRAG03murni besar5,000
1019/01 22:01YENDI20balak100,000
1119/01 22:01CAKOP888murni kecil25,000
1219/01 22:01HNDRXmurni besar50,000
1319/01 22:01EVEN0009balak50,000
1419/01 22:01DELAU09balak10,000
1519/01 22:01CC_BBmurni kecil25,000
1619/01 22:00IRENK14murni kecil25,000
1719/01 22:00RATTIH99murni besar25,000
1819/01 22:00JALU81murni besar25,000
1919/01 21:59NITTA_SHUNbalak10,000
2019/01 21:59SRIKALOmurni besar50,000
2119/01 21:59ADSLbalak100,000
2219/01 21:58T4D0016151murni besar50,000
2319/01 21:58CDCE7EDFmurni kecil50,000
2419/01 21:58LB886640murni besar50,000
2519/01 21:58ZIDAN111murni kecil50,000
2619/01 21:58RIZALANTO_murni besar50,000
2719/01 21:58AAAABKAB22murni kecil50,000
2819/01 21:57QLAY45murni besar5,000
2919/01 21:57KE2112murni kecil50,000
3019/01 21:56ALIFINGlucky9925,000
3119/01 21:56GAPLEXXXmurni kecil50,000
3219/01 21:56ADOET338murni kecil50,000
3319/01 21:55TOBOT99balak10,000
3419/01 21:55ADSLmurni besar50,000
3519/01 21:54ARSHA12murni besar50,000
3619/01 21:51LAE666balak50,000
3719/01 21:50PULMEKAbalak50,000
3819/01 21:50BUDE122balak10,000
3919/01 21:50RIANSA11murni besar25,000
4019/01 21:50T981FH7A7Blucky9910,000
4119/01 21:49ZIMBADD11murni kecil25,000
4219/01 21:49QQ11111117murni kecil25,000
4319/01 21:48ANISSA123murni besar50,000
4419/01 21:48WACCU99balak10,000
4519/01 21:48AAAABKAB22murni kecil50,000
4619/01 21:47JALU81murni besar25,000
4719/01 21:47POCONG25murni kecil25,000
4819/01 21:47JOEANC00Kmurni kecil25,000
4919/01 21:46KREWOL86murni kecil50,000
5019/01 21:46BHATURMmurni besar25,000

Ceme Multi Jackpot System

Jackpot dilihat dari gabungan kartu pemain dengan kartu bandar. Bandar harus membeli jackpot sebanyak jumlah player yang sedang duduk. Sebagai contoh bila terdapat 3 pemain duduk bermain, dan bandar memutuskan untuk membeli jackpot Rp 1.000, maka pada periode tersebut bandar akan membeli jackpot sebanyak 3xRp1.000 = Rp3.000.

Jackpot bukanlah suatu keharusan untuk dibeli, namun kami memberikan suatu fitur tambahan untuk member tercinta dari www.pokergalau.com.

Terdapat tiga pilihan harga jackpot yang bisa anda beli yaitu :100,500 dan 1000 rupiah.

Hadiah dari Multi jackpot system www.pokergalau.com

  1. Murni Kecil x 50 harga jackpot yang anda beli.
      (contoh:anda membeli 1000 maka:1000 X 50 = 50.000)
  2. Murni Besar x 50 harga jackpot yang anda beli
      (contoh:anda membeli 1000 maka:1000 X 50 = 50.000)
  3. BALAK x 200 harga jackpot yang anda beli
      (contoh:anda membeli 1000 maka:1000 X 200 = 200.000)
  4. ENAM DEWA x 6666 harga jackpot yang anda beli
      (contoh:anda membeli 1000 maka:1000 X 6666 = 6.666.000)

Demikian adalah penjelasan dari Multi Jackpot www.pokergalau.com terima kasih dan selamat bermain salam hoki dari kami

Ceme Jackpot Winner

TOP ENAM DEWA
No.TanggalNamaPriceWin
119/01 21:58ZICOSA99murni enam3,333,000
219/01 21:52JALLU98murni enam6,666,000
319/01 21:43JAYENG999murni enam6,666,000
419/01 21:39CC631D74murni enam3,333,000
519/01 21:25RRH31murni enam6,666,000
TOP BALAK
No.TanggalNamaPriceWin
119/01 22:03EFLO49balak20,000
219/01 22:02BOG33Lbalak20,000
319/01 22:02BS45balak200,000
419/01 22:02JURIG5491balak200,000
519/01 22:00WOK2balak200,000
LATEST JACKPOT
No.TanggalNamaPriceWin
119/01 22:03THAIPROmurni kecil50,000
219/01 22:03OCTA96murni besar50,000
319/01 22:03RY825A5J5Emurni besar50,000
419/01 22:03MALIH69murni besar25,000
519/01 22:03KUSUMA0301murni kecil50,000
619/01 22:03LAIKERZ1murni kecil50,000
719/01 22:03MUKRYmurni kecil50,000
819/01 22:03STIEVEN99murni besar50,000
919/01 22:03EFLO49balak20,000
1019/01 22:03TEGUH116murni besar50,000
1119/01 22:03ALELVIRA12murni besar25,000
1219/01 22:03BAGONGCCmurni kecil5,000
1319/01 22:03SIDIKZZZmurni kecil25,000
1419/01 22:03SUKRAM75murni kecil50,000
1519/01 22:02BOG33Lbalak20,000
1619/01 22:02MGIC39murni kecil50,000
1719/01 22:02BENDOL_999murni kecil25,000
1819/01 22:02BS45balak200,000
1919/01 22:02JURIG5491balak200,000
2019/01 22:02SUMBERANmurni kecil5,000
2119/01 22:02PT4DVICT008murni kecil25,000
2219/01 22:02BIMA56murni kecil25,000
2319/01 22:02KAMPLONG08murni kecil5,000
2419/01 22:02KACUKU2018murni kecil5,000
2519/01 22:02HILMI233murni kecil25,000
2619/01 22:02NUSAJONmurni kecil50,000
2719/01 22:02FIOFEmurni besar50,000
2819/01 22:02PANIROYmurni kecil50,000
2919/01 22:02SAEFU551murni kecil50,000
3019/01 22:02RARARImurni kecil50,000
3119/01 22:02SONGO121murni kecil50,000
3219/01 22:01UT0SZ6F7A7murni besar50,000
3319/01 22:01SAY2000murni kecil50,000
3419/01 22:01TARSIH111murni besar5,000
3519/01 22:01LEPAY9murni kecil50,000
3619/01 22:01BOTARKAKmurni kecil50,000
3719/01 22:01MAUXXANmurni kecil5,000
3819/01 22:01G0R1LA12murni kecil25,000
3919/01 22:01DUNHIL83murni kecil25,000
4019/01 22:01LUPUS88321murni kecil50,000
4119/01 22:01DEDIXS18murni besar50,000
4219/01 22:01P4NTEXmurni kecil50,000
4319/01 22:01JALLU98murni kecil50,000
4419/01 22:01ADEZ88murni kecil50,000
4519/01 22:00RAHMADZLDmurni kecil25,000
4619/01 22:00JAYENG99murni kecil50,000
4719/01 22:00CUMICANTmurni kecil50,000
4819/01 22:00EC1Mmurni kecil50,000
4919/01 22:00WOK2balak200,000
5019/01 22:00MAS23BOYOmurni kecil50,000